CAPE
0 0 9 12 41 25 6 0 5 1 0 0 0 0 0 0 0 0 0 0 12 5 9 102 115 68 68 88 0 0 38 1 34
0 0 1 9 8 4 0 0 0 0 0 0 0 0 0 0 0 0 0 0 86 91 66 65 65 73 94 171 152 118 75 83 38
0 0 0 1 5 1 0 0 0 0 0 0 0 0 0 0 0 0 4 44 37 18 38 11 16 92 66 77 57 33 77 133 162
0 0 0 1 3 2 0 0 0 0 0 0 0 0 0 0 0 0 2 91 16 4 0 23 72 34 7 2 5 4 4 6 20
0 0 6 3 1 0 0 0 0 0 0 0 0 0 0 0 0 0 0 10 6 0 9 23 17 8 2 6 5 5 7 10 6
0 0 0 8 0 0 0 0 0 0 0 0 0 0 0 0 0 0 0 0 0 9 12 1 7 5 0 0 0 0 1 3 3
36 0 5 53 58 73 27 28 27 0 0 0 0 0 0 0 0 0 0 0 9 18 2 1 1 1 0 0 0 0 0 0 0
18 0 0 1 27 4 64 12 0 0 0 0 0 0 0 0 0 0 0 0 29 6 0 0 0 0 0 0 0 0 0 0 0
0 0 0 0 0 0 0 0 0 0 0 0 0 0 0 0 0 0 0 0 9 2 0 0 0 0 0 0 0 0 0 0 0
0 0 0 0 0 0 0 0 0 0 0 0 0 0 0 0 0 0 0 0 0 0 0 0 0 0 0 0 0 0 0 0 0
0 0 0 0 0 0 0 0 0 0 0 0 0 0 0 0 0 0 0 0 0 0 0 0 0 0 0 0 0 0 0 0 0
0 0 0 0 0 0 0 0 0 0 0 0 0 0 0 0 0 0 0 0 0 0 0 0 0 0 0 0 0 0 0 0 0
0 0 0 0 0 0 0 0 0 0 0 0 0 0 0 0 0 0 0 0 0 0 0 0 0 0 0 0 0 0 0 0 0
0 0 0 0 0 0 0 0 0 0 0 0 0 0 0 0 0 0 0 0 0 0 0 0 0 0 0 0 0 0 0 0 0
0 0 0 0 0 0 0 0 0 0 0 0 0 0 0 0 0 0 0 0 0 0 0 0 0 0 0 0 0 0 0 0 0
0 0 0 0 0 0 0 0 0 0 0 0 0 0 0 0 0 0 0 0 0 0 0 0 0 0 0 0 0 0 0 0 0
0 0 0 0 0 0 0 0 0 0 0 0 0 0 0 0 0 0 0 0 0 0 0 0 0 0 0 0 0 0 0 0 0
0 0 0 0 0 0 0 0 0 0 0 0 0 0 0 0 0 0 0 0 0 0 0 0 0 0 0 0 0 0 0 0 0
0 0 0 0 0 0 0 0 0 0 0 0 0 0 0 0 0 0 0 0 0 0 0 0 0 0 0 0 0 0 0 0 0
0 0 0 0 0 0 0 0 0 0 0 0 0 0 0 0 0 0 0 0 0 0 0 0 0 0 0 0 0 0 0 0 0
CIN
-0 -0 -0 -0 -5 -1 -0 -0 -39 -32 -0 -0 -0 -0 -0 -0 -0 -0 -0 -0 -0 -0 -0 -48 -51 -78 -75 -54 -0 -0 -112 -0 -116
-0 -0 -0 -0 -0 -0 -0 -0 -0 -0 -0 -0 -0 -0 -0 -0 -0 -0 -0 -0 -74 -90 -107 -93 -96 -89 -61 -20 -37 -61 -85 -71 -123
-0 -0 -0 -0 -0 -0 -0 -0 -0 -0 -0 -0 -0 -0 -0 -0 -0 -0 -33 -78 -150 -1 -134 -0 -0 -85 -106 -91 -110 -131 -81 -55 -41
-0 -0 -0 -0 -0 -0 -0 -0 -0 -0 -0 -0 -0 -0 -0 -0 -0 -0 -46 -102 -3 -0 -0 -13 -84 -0 -0 -2 -0 -0 -0 -14 -219
-1 -0 -0 -0 -0 -0 -0 -0 -0 -0 -0 -0 -0 -0 -0 -0 -0 -0 -1 -9 -2 -0 -0 -0 -0 -0 -0 -0 -0 -0 -0 -0 -0
-0 -0 -0 -46 -0 -0 -0 -0 -6 -0 -0 -0 -0 -0 -0 -0 -0 -0 -0 -0 -0 -0 -0 -0 -0 -0 -0 -0 -0 -0 -0 -0 -0
-279 -0 -139 -180 -156 -123 -147 -129 -113 -0 -0 -0 -0 -0 -0 -0 -0 -0 -0 -0 -0 -0 -0 -0 -0 -0 -0 -0 -0 -0 -0 -0 -0
-339 -0 -0 -38 -224 -30 -151 -17 -0 -0 -0 -0 -0 -0 -0 -0 -0 -0 -0 -0 -0 -0 -0 -0 -0 -0 -0 -0 -0 -0 -0 -0 -0
-0 -0 -0 -0 -0 -0 -0 -0 -0 -0 -0 -0 -0 -0 -0 -0 -0 -0 -0 -0 -0 -0 -0 -0 -0 -0 -0 -0 -0 -0 -0 -0 -0
-0 -0 -0 -0 -0 -0 -0 -0 -0 -0 -0 -0 -0 -0 -0 -0 -0 -0 -0 -0 -0 -0 -0 -0 -0 -0 -0 -0 -0 -0 -0 -0 -0
-0 -0 -0 -0 -0 -0 -0 -0 -0 -0 -0 -0 -0 -0 -0 -0 -0 -0 -0 -0 -0 -0 -0 -0 -0 -0 -0 -0 -0 -0 -0 -0 -0
-0 -0 -0 -0 -0 -0 -0 -0 -0 -0 -0 -0 -0 -0 -0 -0 -0 -0 -0 -0 -0 -0 -0 -0 -0 -0 -0 -0 -0 -0 -0 -0 -0
-0 -0 -0 -0 -0 -0 -0 -0 -0 -0 -0 -0 -0 -0 -0 -0 -0 -0 -0 -0 -0 -0 -0 -0 -0 -0 -0 -0 -0 -0 -0 -0 -0
-0 -0 -0 -0 -0 -0 -0 -0 -0 -0 -0 -0 -0 -0 -0 -0 -0 -0 -0 -0 -0 -0 -0 -0 -0 -0 -0 -0 -0 -0 -0 -0 -0
-0 -0 -0 -0 -0 -0 -0 -0 -0 -0 -0 -0 -0 -0 -0 -0 -0 -0 -0 -0 -0 -0 -0 -0 -0 -0 -0 -0 -0 -0 -0 -0 -0
-0 -0 -0 -0 -0 -0 -0 -0 -0 -0 -0 -0 -0 -0 -0 -0 -0 -0 -0 -0 -0 -0 -0 -0 -0 -0 -0 -0 -0 -0 -0 -0 -0
-0 -0 -0 -0 -0 -0 -0 -0 -0 -0 -0 -0 -0 -0 -0 -0 -0 -0 -0 -0 -0 -0 -0 -0 -0 -0 -0 -0 -0 -0 -0 -0 -0
-0 -0 -0 -0 -0 -0 -0 -0 -0 -0 -0 -0 -0 -0 -0 -0 -0 -0 -0 -0 -0 -0 -0 -0 -0 -0 -0 -0 -0 -0 -0 -0 -0
-0 -0 -0 -0 -0 -0 -0 -0 -0 -0 -0 -0 -0 -0 -0 -0 -0 -0 -0 -0 -0 -0 -0 -0 -0 -0 -0 -0 -0 -0 -0 -0 -0
-0 -0 -0 -0 -0 -0 -0 -0 -0 -0 -0 -0 -0 -0 -0 -0 -0 -0 -0 -0 -0 -0 -0 -0 -0 -0 -0 -0 -0 -0 -0 -0 -0
Wind_Speed
9 9 9 8 10 9 10 10 9 8 6 5 6 7 6 5 3 4 2 1 3 5 6 13 10 1 4 6 5 3 4 5 5
9 9 9 9 9 9 9 9 8 7 6 6 6 6 6 4 5 4 2 1 6 11 10 10 12 10 10 14 9 6 6 5 6
11 11 10 10 10 8 7 7 6 6 5 5 6 6 6 4 4 3 0 2 9 9 9 9 9 12 13 15 15 15 17 16 14
12 11 11 11 10 9 8 7 7 6 4 5 6 5 6 4 3 2 2 7 9 9 8 8 11 13 13 15 13 13 13 14 13
11 9 9 10 10 9 8 7 6 4 3 5 6 3 7 5 4 3 2 7 8 8 9 11 12 13 13 12 12 12 12 12 13
7 6 8 8 8 8 7 6 4 3 4 6 6 6 3 4 3 2 4 6 8 9 10 9 10 11 11 11 11 10 11 11 12
5 6 9 9 8 7 7 6 4 4 2 2 6 3 5 4 3 2 4 5 8 11 9 9 10 10 10 10 10 9 10 11 11
3 2 3 3 5 2 3 2 2 1 3 3 4 5 4 3 2 3 4 5 11 9 8 9 9 9 8 9 9 8 8 9 10
3 3 4 3 2 3 2 2 2 4 5 4 5 4 3 2 1 2 3 2 9 9 7 8 8 8 8 8 8 8 8 8 9
4 4 3 3 3 3 3 3 3 4 5 4 5 4 4 3 2 1 8 11 10 8 8 7 7 7 7 7 8 8 8 9 9
5 4 4 4 4 3 3 4 4 4 4 4 4 5 4 4 3 2 4 10 9 8 7 6 6 6 6 6 6 7 8 9 9
7 5 4 4 4 5 4 4 4 4 3 4 3 4 4 4 5 3 3 5 8 7 7 6 6 6 7 6 8 7 6 8 8
6 5 5 4 4 4 4 4 3 3 3 3 1 2 3 4 5 4 3 3 3 5 6 5 5 6 7 8 8 8 5 8 7
8 6 5 6 5 4 5 2 3 2 2 3 2 2 2 3 3 4 4 4 4 2 3 5 5 6 7 8 9 9 9 8 7
8 5 6 6 5 5 3 4 3 2 3 3 3 2 2 2 3 3 2 3 3 4 3 3 3 5 5 7 8 10 10 8 8
10 7 8 7 8 8 7 4 4 2 1 3 3 2 1 2 2 3 2 3 3 4 3 1 2 3 7 7 9 11 10 10 11
10 10 10 10 7 7 6 6 4 3 2 3 2 1 3 1 1 1 2 3 2 4 3 3 3 3 2 5 11 12 11 12 12
11 10 11 11 9 9 9 7 7 5 1 2 4 2 4 1 1 2 1 3 3 3 3 3 3 3 3 5 7 10 11 13 15
8 8 8 9 6 8 6 4 3 5 4 2 2 3 3 4 1 1 1 2 3 2 1 2 2 3 3 6 9 12 12 14 16
8 8 6 8 6 6 7 6 5 3 4 3 3 1 2 3 2 3 2 2 2 1 1 2 2 3 3 3 7 13 15 17 19
Wind_Direction
137 138 140 136 106 116 112 114 118 120 121 117 118 92 66 56 122 139 204 43 61 46 55 57 47 335 355 306 244 270 288 285 299
139 143 149 143 141 137 134 133 134 142 144 137 118 90 73 78 118 134 128 290 82 65 54 53 49 38 34 37 47 341 299 293 291
147 150 154 161 156 152 150 150 149 151 153 130 101 85 67 71 126 117 200 125 67 61 58 51 51 58 48 45 45 36 38 42 41
153 153 156 159 162 161 162 165 169 168 146 113 97 91 87 100 85 84 52 78 69 66 58 55 74 62 52 43 37 40 34 36 36
163 162 165 165 165 166 169 172 173 155 102 74 66 71 91 99 74 47 48 80 85 75 75 70 67 64 56 55 50 45 40 39 38
162 166 178 170 173 176 177 175 165 110 72 58 58 69 91 85 65 24 54 89 92 91 81 72 73 67 58 52 47 44 42 39 35
168 173 188 183 185 183 181 177 170 121 87 57 70 83 88 82 77 8 48 87 101 89 78 73 69 66 55 49 45 42 41 38 32
173 168 188 189 193 184 176 134 96 104 132 90 91 104 98 96 66 12 40 103 116 96 74 70 67 62 55 48 43 34 36 34 27
172 178 188 187 180 182 159 131 110 85 103 109 101 95 98 97 81 356 66 84 108 96 86 76 69 61 50 41 36 29 28 29 18
171 189 180 186 171 180 168 146 129 108 102 97 111 106 112 105 88 38 86 93 106 102 89 75 63 53 41 34 29 26 19 15 11
185 189 191 183 191 178 169 160 136 111 109 101 107 123 128 118 98 63 65 100 109 104 92 76 59 41 34 30 22 18 21 11 8
185 187 181 194 187 162 141 112 107 106 93 98 102 112 122 129 124 102 80 81 94 110 101 80 71 39 22 19 9 15 10 3 360
182 175 184 175 172 154 138 136 107 106 117 126 94 101 105 140 138 127 118 104 80 102 102 84 66 36 16 3 0 354 350 350 347
179 181 174 162 153 145 147 115 124 148 114 122 109 96 117 148 140 153 147 148 125 115 116 96 67 32 11 3 353 347 331 333 327
174 161 161 158 145 145 137 125 73 132 146 103 79 43 74 119 151 181 151 158 147 137 100 55 2 5 1 354 347 343 333 323 317
172 167 164 167 166 174 155 127 134 80 96 98 35 1 26 131 159 163 179 175 155 125 111 77 6 338 336 334 329 336 327 319 313
177 172 177 175 151 151 163 150 130 115 157 138 106 177 324 11 47 139 178 158 131 113 94 56 9 346 320 309 321 323 321 316 310
184 185 174 174 174 177 178 159 151 144 137 178 149 115 223 147 11 36 59 138 116 104 49 64 20 358 348 342 328 323 317 309 305
164 182 174 174 170 161 182 182 157 131 155 127 110 59 135 164 204 3 103 108 139 102 101 14 60 51 46 29 360 356 341 326 317
161 164 149 156 153 155 162 170 175 131 140 146 160 123 75 87 123 210 275 323 229 233 180 142 108 84 43 7 350 343 329 319 312